Weather reports worldwide

Advertisment
Murcia/San Javier, Spain (8433): temperature & dewpoint: 24.09.2020 23:00:00 - 30.09.2020 23:00:00 (CEST)Murcia/San Javier, Spain (8433): wind speed: 24.09.2020 23:00:00 - 30.09.2020 23:00:00 (CEST)Murcia/San Javier, Spain (8433): wind direction: 24.09.2020 23:00:00 - 30.09.2020 23:00:00 (CEST)Murcia/San Javier, Spain (8433): reduced air pressure: 24.09.2020 23:00:00 - 30.09.2020 23:00:00 (CEST)Murcia/San Javier, Spain (8433): visibility: 24.09.2020 23:00:00 - 30.09.2020 23:00:00 (CEST)
Date & Time tt [°C] td [°C] ff [km/h] ff [kn] dd ppp [hPa] vv [km]
30.09.2020 23:00:00 21,0 18,8 11 6 SW 1014,3 -
30.09.2020 22:00:00 21,2 18,6 11 6 SSW 1014,4 -
30.09.2020 21:00:00 21,8 18,2 11 6 SW 1014,2 -
30.09.2020 20:00:00 22,6 18,2 13 7 SSW 1014,0 -
30.09.2020 19:00:00 24,0 18,4 13 7 S 1014,2 -
30.09.2020 18:00:00 24,3 19,0 16 9 SSE 1014,4 -
30.09.2020 17:00:00 25,1 19,2 18 10 SE 1014,6 20
30.09.2020 16:00:00 25,1 19,5 15 8 SE 1015,0 -
30.09.2020 15:00:00 24,7 18,9 13 7 SE 1015,7 -
30.09.2020 14:00:00 25,3 18,5 9 5 ESE 1016,3 20
30.09.2020 13:00:00 24,8 18,5 8 4 SSE 1016,9 -
30.09.2020 12:00:00 25,0 18,2 9 5 S 1017,2 -
30.09.2020 11:00:00 23,0 17,9 8 4 S 1017,2 20
30.09.2020 10:00:00 22,3 17,9 5 3 N 1017,1 -
30.09.2020 09:00:00 18,8 16,8 9 5 NW 1016,8 -
30.09.2020 08:00:00 15,5 14,5 11 6 NW 1016,5 25
30.09.2020 07:00:00 15,9 14,8 11 6 NW 1016,5 -
30.09.2020 06:00:00 16,4 14,9 11 6 NW 1016,6 -
30.09.2020 05:00:00 17,0 15,3 11 6 NW 1016,6 -
30.09.2020 04:00:00 18,2 16,0 13 7 NNW 1016,7 -
30.09.2020 03:00:00 18,0 16,0 11 6 NNW 1017,0 -
30.09.2020 02:00:00 17,4 15,4 9 5 NNW 1017,4 -
30.09.2020 01:00:00 18,6 16,0 11 6 NNW 1017,5 -
30.09.2020 00:00:00 18,6 15,7 9 5 NNW 1017,7 -
29.09.2020 23:00:00 21,7 17,0 11 6 NNE 1017,8 -
29.09.2020 22:00:00 22,2 17,6 15 8 ENE 1017,4 -
29.09.2020 21:00:00 22,2 18,0 16 9 ENE 1017,0 -
29.09.2020 20:00:00 22,8 18,1 18 10 ENE 1016,7 -
29.09.2020 19:00:00 23,9 18,1 18 10 ENE 1016,7 -
29.09.2020 18:00:00 25,1 18,1 16 9 ENE 1016,6 -
29.09.2020 17:00:00 25,7 17,7 21 11 ENE 1016,5 30
29.09.2020 16:00:00 26,0 17,4 21 11 ENE 1017,0 -
29.09.2020 15:00:00 26,4 17,1 22 12 ENE 1017,7 -
29.09.2020 14:00:00 26,4 17,3 18 10 NE 1018,3 30
29.09.2020 13:00:00 26,6 17,5 18 10 NE 1018,8 -
29.09.2020 12:00:00 25,8 17,0 21 11 NE 1019,1 -
29.09.2020 11:00:00 24,8 17,2 21 11 NNE 1018,9 30
29.09.2020 10:00:00 22,8 17,0 16 9 N 1018,5 -
29.09.2020 09:00:00 20,2 16,2 16 9 N 1018,2 -
29.09.2020 08:00:00 18,3 15,7 15 8 N 1017,7 20
29.09.2020 07:00:00 18,1 15,4 13 7 NNW 1017,6 -
29.09.2020 06:00:00 18,2 15,3 15 8 N 1017,7 -
29.09.2020 05:00:00 18,1 15,0 13 7 N 1017,6 -
29.09.2020 04:00:00 17,9 14,8 13 7 NNW 1017,7 -
29.09.2020 03:00:00 17,5 14,0 11 6 NNW 1017,9 -
29.09.2020 02:00:00 17,4 13,2 11 6 N 1018,2 -
29.09.2020 01:00:00 17,7 12,8 13 7 NNW 1018,1 -
29.09.2020 00:00:00 18,6 14,3 11 6 NNW 1018,0 -
28.09.2020 23:00:00 21,4 15,9 11 6 NE 1017,7 -
28.09.2020 22:00:00 22,2 16,7 8 4 E 1017,5 -
28.09.2020 21:00:00 22,5 16,0 11 6 SSE 1016,8 -
28.09.2020 20:00:00 23,3 15,7 15 8 SSE 1016,1 -
28.09.2020 19:00:00 24,7 16,5 21 11 SSE 1015,5 -
28.09.2020 18:00:00 24,9 16,5 18 10 SE 1015,1 -
28.09.2020 17:00:00 25,5 14,1 18 10 ESE 1015,1 30
28.09.2020 16:00:00 25,5 13,3 22 12 ESE 1015,2 -
28.09.2020 15:00:00 26,6 10,8 16 9 SE 1016,1 -
28.09.2020 14:00:00 25,8 11,2 16 9 ESE 1016,7 30
28.09.2020 13:00:00 28,3 8,9 8 4 S 1016,9 -
28.09.2020 12:00:00 27,5 3,2 16 9 NW 1016,8 -
28.09.2020 11:00:00 25,2 3,8 18 10 NW 1016,7 30
28.09.2020 10:00:00 22,5 5,4 13 7 WNW 1016,5 -
28.09.2020 09:00:00 19,4 6,8 13 7 W 1016,0 -
28.09.2020 08:00:00 14,8 9,7 13 7 WNW 1015,1 30
28.09.2020 07:00:00 15,5 12,0 8 4 W 1014,7 -
28.09.2020 06:00:00 14,8 12,3 0 0 N 1014,5 -
28.09.2020 05:00:00 15,7 13,5 2 1 SW 1014,6 -
28.09.2020 04:00:00 16,0 13,5 11 6 W 1014,8 -
28.09.2020 03:00:00 16,7 13,6 11 6 WNW 1014,9 -
28.09.2020 02:00:00 17,2 13,5 9 5 WNW 1015,2 -
28.09.2020 01:00:00 17,9 14,0 8 4 NW 1015,2 -
28.09.2020 00:00:00 19,0 14,5 8 4 W 1015,2 -
27.09.2020 23:00:00 20,8 16,0 8 4 SW 1014,9 -
27.09.2020 22:00:00 21,8 16,3 11 6 S 1014,5 -
27.09.2020 21:00:00 22,1 14,8 11 6 S 1013,9 -
27.09.2020 20:00:00 22,6 14,7 13 7 SE 1013,6 -
27.09.2020 19:00:00 23,8 15,2 13 7 SE 1013,1 -
27.09.2020 18:00:00 24,5 14,0 15 8 ESE 1012,7 -
27.09.2020 17:00:00 24,5 15,2 26 14 ESE 1011,9 30
27.09.2020 16:00:00 25,0 14,4 29 16 E 1011,7 -
27.09.2020 15:00:00 28,0 11,4 18 10 ESE 1011,9 -
27.09.2020 14:00:00 28,0 12,6 13 7 E 1012,1 30
27.09.2020 13:00:00 27,9 12,1 18 10 ENE 1012,2 -
27.09.2020 12:00:00 27,1 9,1 18 10 NW 1012,4 -
27.09.2020 11:00:00 25,8 9,3 24 13 NNW 1011,9 30
27.09.2020 10:00:00 24,0 9,1 22 12 WNW 1011,3 -
27.09.2020 09:00:00 22,0 7,5 9 5 WSW 1011,4 -
27.09.2020 08:00:00 19,6 6,8 9 5 WSW 1011,3 30
27.09.2020 07:00:00 16,3 8,8 4 2 SSW 1010,9 -
27.09.2020 06:00:00 17,9 8,5 11 6 WNW 1010,5 -
27.09.2020 05:00:00 17,4 11,4 11 6 WSW 1010,2 -
27.09.2020 04:00:00 17,5 12,2 13 7 WSW 1010,8 -
27.09.2020 03:00:00 16,9 12,4 8 4 WSW 1011,3 -
27.09.2020 02:00:00 18,2 13,1 15 8 W 1012,0 -
27.09.2020 01:00:00 18,1 12,1 9 5 W 1012,7 -
27.09.2020 00:00:00 18,8 11,1 11 6 W 1013,1 -
26.09.2020 23:00:00 20,0 11,2 11 6 W 1013,9 -
26.09.2020 22:00:00 21,2 10,7 13 7 W 1014,2 -
26.09.2020 21:00:00 22,1 10,3 22 12 WSW 1014,0 -
26.09.2020 20:00:00 22,4 9,9 22 12 SW 1013,8 -
26.09.2020 19:00:00 23,9 8,9 26 14 SSW 1013,7 -
26.09.2020 18:00:00 25,6 7,8 28 15 SSW 1013,7 -
26.09.2020 17:00:00 28,7 2,8 22 12 W 1014,5 30
26.09.2020 16:00:00 28,9 2,2 22 12 WNW 1014,9 -
26.09.2020 15:00:00 27,9 2,1 22 12 NW 1016,0 -
26.09.2020 14:00:00 26,5 1,7 18 10 WNW 1017,3 30
26.09.2020 13:00:00 24,7 2,3 18 10 WNW 1018,7 -
26.09.2020 12:00:00 23,5 2,3 24 13 NW 1019,2 -
26.09.2020 11:00:00 22,6 3,2 18 10 WNW 1019,6 35
26.09.2020 10:00:00 21,3 3,6 21 11 WNW 1019,6 -
26.09.2020 09:00:00 19,3 3,4 18 10 WNW 1019,5 -
26.09.2020 08:00:00 17,2 3,5 16 9 WNW 1019,1 30
26.09.2020 07:00:00 19,4 2,5 16 9 WNW 1019,0 -
26.09.2020 06:00:00 19,6 2,4 11 6 NW 1019,1 -
26.09.2020 05:00:00 19,7 2,1 21 11 NNW 1018,9 -
26.09.2020 04:00:00 20,0 2,8 22 12 NW 1018,9 -
26.09.2020 03:00:00 20,9 2,2 24 13 NNW 1019,2 -
26.09.2020 02:00:00 20,7 2,5 11 6 NNW 1020,0 -
26.09.2020 01:00:00 21,7 2,4 11 6 NNW 1020,0 -
26.09.2020 00:00:00 22,4 1,9 9 5 N 1020,1 -
25.09.2020 23:00:00 22,6 2,1 13 7 NW 1019,9 -
25.09.2020 22:00:00 24,6 0,8 11 6 N 1019,3 -
25.09.2020 21:00:00 25,0 2,3 8 4 NNW 1018,0 -
25.09.2020 20:00:00 26,8 3,9 13 7 NNW 1016,9 -
25.09.2020 19:00:00 29,0 5,0 26 14 NNW 1016,1 -
25.09.2020 18:00:00 30,3 5,9 22 12 NNW 1015,7 -
25.09.2020 17:00:00 31,3 5,7 26 14 NNW 1015,6 25
25.09.2020 16:00:00 31,3 6,4 28 15 NNW 1015,6 -
25.09.2020 15:00:00 30,6 7,1 29 16 NNW 1015,7 -
25.09.2020 14:00:00 30,6 7,6 28 15 NNW 1016,2 25
25.09.2020 13:00:00 28,8 8,6 26 14 NNW 1016,6 -
25.09.2020 12:00:00 28,3 10,0 24 13 NNW 1016,3 -
25.09.2020 11:00:00 28,0 9,3 24 13 NNW 1015,8 25
25.09.2020 10:00:00 27,8 11,4 18 10 N 1015,2 -
25.09.2020 09:00:00 25,0 14,5 9 5 NW 1014,4 -
25.09.2020 08:00:00 24,0 13,8 5 3 WSW 1014,1 25
25.09.2020 07:00:00 25,3 13,5 21 11 WSW 1013,5 -
25.09.2020 06:00:00 25,6 13,1 18 10 SW 1013,7 -
25.09.2020 05:00:00 26,1 13,2 18 10 WSW 1013,6 -
25.09.2020 04:00:00 27,3 13,3 18 10 W 1014,1 -
25.09.2020 03:00:00 27,4 13,3 18 10 W 1014,5 -
25.09.2020 02:00:00 26,1 13,9 0 0 N 1014,9 -
25.09.2020 01:00:00 25,5 17,0 11 6 WNW 1014,9 -
25.09.2020 00:00:00 26,6 16,2 11 6 WSW 1014,7 -
24.09.2020 23:00:00 27,1 18,3 8 4 W 1015,1 20

tt = temperature
td = dewpoint
ff = wind speed
dd = wind direction
ppp = reduced air pressure
vv = visibility

Next stations